Location: Arnolds Mill
(42.3415°N, 73.5951°W)
Time: 11:38:16
(UTC+00:00)

BlueWalker 3 - Pass Details

Date: 27 June 2024
Orbit: 480 x 492 km, 53.2° (Epoch: 13 July)

Event Time Altitude Azimuth Distance (km) Brightness Sun altitude
Rises 05:37:09 0° 305° (NW) 2,539 5.8 -23.7°
Reaches altitude 10° 05:39:19 10° 303° (WNW) 1,657 4.8 -23.7°
Enters shadow 05:41:06 26° 298° (WNW) 968 3.5 -23.6°
